Flag for South Korea Weather past 2 weeks in Incheon, South Korea

Now
75 °F

Passing clouds.


Feels Like: 75 °F
Forecast: 74 / 85 °F
Wind: 7 mph from South

Location: Incheon International Airport

Current Time: Jul 30, 2014 at 1:20:14 AM

Latest Report: Jul 30, 2014 at 1:00 AM


Visibility: N/A

Pressure: 29.83 "Hg

Humidity: 83%

Dew point: 70 °F

Location of IncheonLocation

Historic Weather in Incheon — Graph

°F

Incheon temperature yesterday

Maximum temperature yesterday: 84 °F (at 2:30 PM)
Minimum temperature yesterday: 72 °F (at 6:30 AM)
Average temperature yesterday: 78 °F

Past Weeks' High & Low Weather Summary

 TemperatureHumidityPressure
High91 °F (Jul 25, 2:30 PM)94% (Jul 18, 3:30 AM)29.92 "Hg (Jul 18, 3:30 AM)
Low66 °F (Jul 24, 3:00 AM)46% (Jul 15, 2:30 PM)29.50 "Hg (Jul 25, 7:30 PM)
Average77 °F79%29.79 "Hg
* Reported Midnight between Jul 14 and Jul 15 — Midnight between Jul 29 and Jul 30, Incheon, Weather by CustomWeather, © 2014

Note: Actual official high and low records may vary slightly from our data, if they occured in-between our weather recording intervals... More about our weather records

Advertising

Incheon weather history for previous 24 hours

 ConditionsComfort  
Time TempWeatherWind HumidityBarometerVisibility
12:00 AM
Jul 30
77 °FPassing clouds.9 mph83%29.83 "HgN/A
11:30 PM
Jul 29
77 °FPassing clouds.10 mph79%29.83 "HgN/A
11:00 PM79 °FPassing clouds.10 mph74%29.83 "HgN/A
10:30 PM77 °FPassing clouds.9 mph79%29.80 "HgN/A
10:00 PM79 °FPassing clouds.9 mph74%29.80 "HgN/A
9:30 PM77 °FPassing clouds.9 mph79%29.80 "HgN/A
9:00 PM77 °FClear.7 mph79%29.80 "Hg10 mi
8:30 PM77 °FSunny.8 mph79%29.80 "Hg10 mi
8:00 PM77 °FSunny.8 mph79%29.77 "Hg10 mi
7:30 PM79 °FSunny.8 mph70%29.77 "Hg10 mi
7:00 PM79 °FSunny.12 mph70%29.77 "Hg10 mi
6:30 PM79 °FScattered clouds.10 mph70%29.77 "HgN/A
6:00 PM81 °FPartly sunny.7 mph62%29.77 "HgN/A
5:30 PM81 °FPartly sunny.8 mph66%29.77 "HgN/A
5:00 PM82 °FScattered clouds.3 mph62%29.80 "HgN/A
4:30 PM81 °FScattered clouds.7 mph62%29.80 "HgN/A
4:00 PM82 °FScattered clouds.12 mph58%29.80 "HgN/A
3:30 PM82 °FScattered clouds.5 mph58%29.80 "HgN/A
3:00 PM82 °FScattered clouds.8 mph58%29.80 "HgN/A
2:30 PM84 °FScattered clouds.9 mph51%29.80 "HgN/A
2:00 PM82 °FScattered clouds.9 mph55%29.80 "HgN/A
1:30 PM81 °FScattered clouds.10 mph62%29.80 "HgN/A
1:00 PM82 °FScattered clouds.10 mph58%29.80 "HgN/A
12:30 PM81 °FSunny.10 mph58%29.80 "Hg10 mi
12:00 PM81 °FSunny.8 mph58%29.80 "Hg10 mi
11:30 AM81 °FSunny.9 mph58%29.83 "Hg10 mi
11:00 AM79 °FClear.8 mph61%29.83 "Hg4 mi
10:30 AM81 °FScattered clouds.10 mph62%29.83 "Hg4 mi
10:00 AM79 °FBroken clouds.15 mph61%29.83 "Hg4 mi
9:30 AM79 °FBroken clouds.10 mph70%29.83 "Hg4 mi
9:00 AM79 °FPartly sunny.8 mph65%29.83 "Hg4 mi
8:30 AM77 °FPartly sunny.7 mph69%29.80 "Hg4 mi
8:00 AM77 °FBroken clouds.6 mph69%29.80 "Hg5 mi
7:30 AM75 °FBroken clouds.1 mph69%29.80 "Hg4 mi
7:00 AM73 °FFog.8 mph78%29.83 "Hg3 mi
6:30 AM72 °FFog.10 mph88%29.83 "Hg3 mi
5:30 AM73 °FFog.6 mph83%29.83 "Hg3 mi
5:00 AM73 °FFog.7 mph83%29.80 "Hg3 mi
4:30 AM73 °FFog.7 mph83%29.80 "Hg3 mi
4:00 AM73 °FFog.7 mph83%29.80 "Hg2 mi
3:30 AM73 °FFog.7 mph89%29.80 "Hg1 mi
3:00 AM73 °FFog.5 mph78%29.80 "Hg3 mi
2:30 AM73 °FFog.6 mph74%29.77 "Hg3 mi
2:00 AM73 °FFog.7 mph78%29.77 "Hg3 mi
1:30 AM75 °FPartly cloudy.8 mph74%29.77 "Hg4 mi
1:00 AM75 °FPartly cloudy.7 mph78%29.77 "Hg4 mi
Weather by CustomWeather, © 2014

See weather overviewHow to use our weather pages